TimeMDT,TemperatureF,Dew PointF,Humidity,Sea Level PressureIn,VisibilityMPH,Wind Direction,Wind SpeedMPH,Gust SpeedMPH,PrecipitationIn,Events,Conditions,WindDirDegrees,DateUTC
12:53 AM,82.0,50.0,33,29.73,10.0,SSE,18.4,25.3,N/A,,Clear,150,2013-07-06 06:53:00
1:53 AM,81.0,50.0,34,29.72,10.0,SSE,15.0,-,N/A,,Clear,160,2013-07-06 07:53:00
2:53 AM,78.1,50.0,37,29.72,10.0,SE,9.2,-,N/A,,Clear,130,2013-07-06 08:53:00
3:53 AM,77.0,50.0,39,29.71,10.0,SSE,9.2,-,N/A,,Clear,150,2013-07-06 09:53:00
4:53 AM,75.9,51.1,42,29.70,10.0,SSE,10.4,-,N/A,,Clear,150,2013-07-06 10:53:00
5:53 AM,75.0,51.1,43,29.72,10.0,SSE,11.5,-,N/A,,Clear,150,2013-07-06 11:53:00
6:53 AM,75.0,51.1,43,29.73,10.0,SSE,12.7,-,N/A,,Clear,150,2013-07-06 12:53:00
7:53 AM,78.1,51.1,39,29.74,10.0,SE,15.0,-,N/A,,Clear,140,2013-07-06 13:53:00
8:53 AM,80.1,51.1,36,29.75,10.0,SSE,12.7,-,N/A,,Clear,150,2013-07-06 14:53:00
9:53 AM,84.0,52.0,33,29.74,10.0,SE,10.4,-,N/A,,Clear,140,2013-07-06 15:53:00
10:53 AM,87.1,52.0,30,29.73,10.0,SE,8.1,-,N/A,,Clear,130,2013-07-06 16:53:00
11:53 AM,91.9,52.0,26,29.71,10.0,SSE,9.2,-,N/A,,Clear,160,2013-07-06 17:53:00
12:53 PM,95.0,52.0,23,29.69,10.0,SSE,9.2,16.1,N/A,,Clear,150,2013-07-06 18:53:00
1:53 PM,97.0,51.1,21,29.66,10.0,SSE,11.5,17.3,N/A,,Clear,160,2013-07-06 19:53:00
2:53 PM,100.9,50.0,18,29.63,10.0,ESE,13.8,21.9,N/A,,Clear,120,2013-07-06 20:53:00
3:53 PM,100.9,48.9,17,29.62,10.0,SE,11.5,20.7,N/A,,Clear,140,2013-07-06 21:53:00
4:53 PM,100.9,48.9,17,29.61,10.0,SE,15.0,23.0,N/A,,Clear,130,2013-07-06 22:53:00
5:53 PM,98.1,48.9,19,29.60,7.0,SE,17.3,20.7,N/A,,Clear,130,2013-07-06 23:53:00
6:53 PM,96.1,48.9,20,29.61,10.0,ESE,13.8,21.9,N/A,,Clear,120,2013-07-07 00:53:00
7:53 PM,93.0,48.9,22,29.65,10.0,SE,19.6,23.0,N/A,,Clear,130,2013-07-07 01:53:00
8:53 PM,89.1,51.1,27,29.67,10.0,SE,17.3,25.3,N/A,,Clear,130,2013-07-07 02:53:00
9:53 PM,87.1,50.0,28,29.72,10.0,SE,16.1,21.9,N/A,,Clear,140,2013-07-07 03:53:00
10:53 PM,84.9,46.9,27,29.74,10.0,SSE,17.3,26.5,N/A,,Clear,150,2013-07-07 04:53:00
11:53 PM,82.9,45.0,26,29.74,10.0,SSE,13.8,24.2,N/A,,Clear,150,2013-07-07 05:53:00